WA8KWD Weather Reports


time (UTC)temp
F
wind
direction
speed
knots
gust
knots
rain 1hr
in
rain 24hr
in
rain mn
in
humidity
%
barometer
mb
20260505181513 66 234 1.7 7.8 0.00 0.00 0.00 58 1008.8
20260505180017 67 227 4.3 10.4 0.00 0.00 0.00 58 1008.9
20260505174510 67 236 3.5 9.6 0.00 0.00 0.00 57 1008.7
20260505173010 68 245 5.2 11.3 0.00 0.00 0.00 55 1008.6
20260505171509 69 212 2.6 6.1 0.00 0.00 0.00 55 1008.7
20260505170016 69 174 3.5 7.8 0.00 0.00 0.00 54 1008.6
20260505164509 69 252 4.3 9.6 0.00 0.00 0.00 53 1008.8
20260505163010 69 215 4.3 8.7 0.00 0.00 0.00 55 1008.5
20260505161507 69 222 3.5 7.0 0.00 0.00 0.00 54 1008.2
20260505160108 68 216 2.6 7.8 0.00 0.00 0.00 55 1008.2
20260505153001 68 203 3.5 8.7 0.00 0.00 0.00 55 1008.2
20260505151604 67 193 3.5 9.6 0.00 0.00 0.00 55 1008.3
20260505124535 60 188 0.9 2.6 0.00 0.00 0.00 51 1008.0
20260505123033 60 174 1.7 3.5 0.00 0.00 0.00 53 1007.7
20260505121533 60 181 0.9 2.6 0.00 0.00 0.00 52 1007.8
20260505120035 60 192 0.0 2.6 0.00 0.00 0.00 52 1007.8
20260505114530 60 184 0.0 3.5 0.00 0.00 0.00 53 1007.7
20260505113032 60 197 0.9 4.3 0.00 0.00 0.00 54 1007.7
20260505111529 60 184 0.9 3.5 0.00 0.00 0.00 52 1007.7
20260505101521 60 229 0.9 1.7 0.00 0.00 0.00 56 1007.2
20260505100022 60 198 0.9 2.6 0.00 0.00 0.00 58 1007.1
20260505094517 60 226 0.9 1.7 0.00 0.00 0.00 58 1007.0
20260505093027 60 217 0.9 3.5 0.00 0.00 0.00 59 1006.7
20260505091516 61 221 1.7 4.3 0.00 0.00 0.00 59 1006.7
20260505090014 61 202 0.9 2.6 0.00 0.00 0.00 60 1006.5
20260505084511 62 215 1.7 6.1 0.00 0.00 0.00 60 1006.5
20260505083010 62 230 1.7 5.2 0.00 0.00 0.00 60 1006.3
20260505081509 62 203 2.6 5.2 0.00 0.00 0.00 60 1006.1
20260505080011 62 226 0.9 4.3 0.00 0.00 0.00 60 1006.0
20260505074508 62 195 2.6 4.3 0.00 0.00 0.00 60 1005.8
20260505073007 62 209 1.7 3.5 0.00 0.00 0.00 60 1005.8
20260505071506 62 231 1.7 6.1 0.00 0.00 0.00 60 1005.7
20260505070006 62 195 1.7 3.5 0.00 0.00 0.00 60 1005.8
20260505064506 62 210 1.7 4.3 0.00 0.00 0.00 59 1005.8
20260505063002 62 208 1.7 3.5 0.00 0.00 0.00 60 1005.9
20260505061500 62 224 1.7 4.3 0.00 0.00 0.00 60 1006.0
20260505060059 63 205 1.7 3.5 0.00 0.00 0.00 60 1006.1
20260505054557 63 184 2.6 6.1 0.00 0.00 0.00 60 1006.5
20260505053105 64 184 1.7 3.5 0.00 0.00 0.00 60 1006.7
20260505051554 64 187 1.7 3.5 0.00 0.00 0.00 60 1006.8
20260505041545 62 164 1.7 3.5 0.00 0.00 0.00 60 1006.9
20260505040043 62 162 1.7 3.5 0.00 0.00 0.00 59 1007.0
20260505034542 62 186 1.7 4.3 0.00 0.00 0.00 60 1007.1
20260505033104 61 165 1.7 3.5 0.00 0.00 0.00 61 1007.2
20260505031541 62 177 0.9 3.5 0.00 0.00 0.00 61 1007.2
20260505030042 62 178 0.9 2.6 0.00 0.00 0.00 61 1007.1
20260505024540 62 188 0.9 3.5 0.00 0.00 0.00 61 1007.0
20260505023052 62 170 1.7 3.5 0.00 0.00 0.00 61 1007.2
20260505021539 62 184 0.9 2.6 0.00 0.00 0.00 61 1007.3
20260505020046 63 176 1.7 2.6 0.00 0.00 0.00 61 1007.4
20260505014537 64 184 1.7 3.5 0.00 0.00 0.00 60 1007.3
20260505013037 64 207 1.7 3.5 0.00 0.00 0.00 60 1007.2
20260505011537 64 178 1.7 3.5 0.00 0.00 0.00 60 1007.2
20260505010041 64 191 1.7 6.1 0.00 0.00 0.00 59 1007.1
20260505004544 65 210 1.7 3.5 0.00 0.00 0.00 58 1007.1
20260505003037 66 216 1.7 4.3 0.00 0.00 0.00 57 1006.8
20260505001534 66 203 3.5 7.0 0.00 0.00 0.00 57 1006.7
20260505000036 66 229 2.6 8.7 0.00 0.00 0.00 57 1006.5
20260504234555 67 195 1.7 5.2 0.00 0.00 0.00 57 1006.4
20260504233034 68 226 0.9 4.3 0.00 0.00 0.00 55 1006.3
20260504231542 69 209 2.6 6.1 0.00 0.00 0.00 53 1006.4
20260504230030 69 237 1.7 7.8 0.00 0.00 0.00 55 1006.5
20260504224529 69 209 1.7 7.0 0.00 0.00 0.00 53 1006.7
20260504223027 70 219 3.5 9.6 0.00 0.00 0.00 53 1006.6
20260504221527 70 223 3.5 8.7 0.00 0.00 0.00 53 1006.8
20260504220026 70 224 5.2 11.3 0.00 0.00 0.00 53 1006.6
20260504214533 69 186 4.3 8.7 0.00 0.00 0.00 53 1006.8
20260504213026 70 223 4.3 8.7 0.00 0.00 0.00 53 1006.9
20260504211521 70 202 2.6 8.7 0.00 0.00 0.00 53 1007.0
20260504210020 71 218 2.6 7.0 0.00 0.00 0.00 52 1007.0
20260504204544 71 236 5.2 9.6 0.00 0.00 0.00 52 1007.1
20260504203017 72 242 4.3 7.8 0.00 0.00 0.00 50 1007.0
20260504201516 71 224 2.6 8.7 0.00 0.00 0.00 52 1007.1
20260504200016 72 167 3.5 7.8 0.00 0.00 0.00 50 1007.3
20260504194512 72 207 3.5 7.0 0.00 0.00 0.00 51 1007.5
20260504193200 72 244 2.6 8.7 0.00 0.00 0.00 50 1007.8
20260504191556 71 216 2.6 5.2 0.00 0.00 0.00 54 1008.1
20260504190100 71 222 1.7 6.1 0.00 0.00 0.00 54 1008.2
20260504184603 70 209 2.6 8.7 0.00 0.00 0.00 51 1008.4
20260504183058 70 182 4.3 7.0 0.00 0.00 0.00 51 1008.4